Eagle, AK

2:00 AM AKST on November 15, 2019 (GMT -0900)
Eagle

Weather History for PAEG - October, 2019

Change the Weather History Date:

Monday, October 21, 2019

  Actual Average (PABN) Record (PABN)
Temperature  
Mean Temperature 26 °F -  
Max Temperature 37 °F 21 °F 48 °F (2008)
Min Temperature 16 °F 12 °F 0 °F (1996)
Degree Days  
Heating Degree Days 38    
Moisture  
Dew Point 22 °F    
Average Humidity 76    
Maximum Humidity 92    
Minimum Humidity 65    
Precipitation  
Precipitation 0.00 in - - ()
Sea Level Pressure  
Sea Level Pressure 29.73 in    
Wind  
Wind Speed 2 mph (SSE)    
Max Wind Speed 9 mph    
Max Gust Speed -    
Visibility 10 miles    
Events      
Averages and records for this station are not official NWS values.
T = Trace of Precipitation, MM = Missing Value Source: NWS Daily Summary

Daily Weather History Graph

Daily Weather History Graph

Search for Another Location

Airport or City:

Astronomy

Oct. 21, 2019 Rise Set
Actual Time 8:35 AM AKDT 5:41 PM AKDT
Civil Twilight 7:44 AM AKDT 6:32 PM AKDT
Nautical Twilight 6:47 AM AKDT 7:29 PM AKDT
Astronomical Twilight 5:50 AM AKDT 8:25 PM AKDT
Moon 10:40 PM AKDT (10/21) 5:32 PM AKDT (10/21)
Length of Visible Light 10h 48m
Length of Day
9h 05m
Waning Gibbous, 47% of the Moon is Illuminated
Oct 21
Waning Gibbous
Oct 27
New
Nov 4
First Quarter
Nov 12
Full
Nov 19
Last Quarter

Hourly Weather History & Observations

Time (AKDT) Temp. Windchill Dew Point Humidity Pressure Visibility Wind Dir Wind Speed Gust Speed Precip Events Conditions
1:32 AM 16.0 °F - 12.9 °F 88% 29.73 in 10.0 mi Calm Calm - N/A   Overcast
1:53 AM 17.1 °F - 12.9 °F 84% 29.78 in 10.0 mi Calm Calm - N/A   Overcast
2:42 AM 17.1 °F - 14.0 °F 88% 29.73 in 10.0 mi Calm Calm - N/A   Overcast
2:53 AM 18.0 °F - 14.0 °F 84% 29.76 in 10.0 mi Calm Calm - N/A   Overcast
3:06 AM 18.0 °F - 15.1 °F 88% 29.72 in 10.0 mi Calm Calm - N/A   Overcast
3:53 AM 18.0 °F - 15.1 °F 88% 29.76 in 10.0 mi Calm Calm - N/A   Mostly Cloudy
4:53 AM 23.0 °F - 19.9 °F 88% 29.75 in 10.0 mi Calm Calm - N/A   Overcast
5:53 AM 25.0 °F - 21.9 °F 88% 29.75 in 10.0 mi Calm Calm - N/A   Overcast
6:53 AM 26.1 °F - 24.1 °F 92% 29.75 in 10.0 mi Calm Calm - N/A   Overcast
7:53 AM 27.0 °F - 24.1 °F 89% 29.75 in 10.0 mi Calm Calm - N/A   Overcast
8:53 AM 32.0 °F 27.5 °F 26.1 °F 79% 29.74 in 10.0 mi South 4.6 mph - N/A   Overcast
9:53 AM 34.0 °F 31.0 °F 27.0 °F 75% 29.74 in 10.0 mi Variable 3.5 mph - N/A   Overcast
10:53 AM 36.0 °F 31.1 °F 27.0 °F 70% 29.74 in 10.0 mi SE 5.8 mph - N/A   Overcast
11:53 AM 37.0 °F 31.6 °F 27.0 °F 67% 29.74 in 10.0 mi Variable 6.9 mph - N/A   Overcast
12:53 PM 37.0 °F 31.0 °F 27.0 °F 67% 29.74 in 10.0 mi SE 8.1 mph - N/A   Overcast
1:53 PM 37.0 °F 30.4 °F 26.1 °F 65% 29.73 in 10.0 mi SE 9.2 mph - N/A   Overcast
2:30 PM 37.0 °F 31.0 °F 26.1 °F 65% 29.69 in 10.0 mi SE 8.1 mph - N/A   Overcast
2:53 PM 37.0 °F 33.3 °F 26.1 °F 65% 29.72 in 10.0 mi Variable 4.6 mph - N/A   Overcast
3:53 PM 37.0 °F 30.4 °F 26.1 °F 65% 29.72 in 10.0 mi SSE 9.2 mph - N/A   Overcast
4:53 PM 37.0 °F 33.3 °F 26.1 °F 65% 29.72 in 10.0 mi SSE 4.6 mph - N/A   Overcast
5:11 PM 36.0 °F 32.1 °F 26.1 °F 67% 29.68 in 10.0 mi SSE 4.6 mph - N/A   Overcast
5:53 PM 36.0 °F 33.3 °F 26.1 °F 67% 29.71 in 10.0 mi South 3.5 mph - N/A   Overcast
6:24 PM 35.1 °F 30.1 °F 25.0 °F 67% 29.68 in 10.0 mi Variable 5.8 mph - N/A   Mostly Cloudy
6:53 PM 34.0 °F 28.0 °F 25.0 °F 70% 29.72 in 10.0 mi South 6.9 mph - N/A   Mostly Cloudy
7:53 PM 34.0 °F 29.8 °F 24.1 °F 67% 29.72 in 10.0 mi South 4.6 mph - N/A   Mostly Cloudy
8:53 PM 32.0 °F - 24.1 °F 73% 29.72 in 10.0 mi Calm Calm - N/A   Overcast
9:53 PM 28.9 °F 25.2 °F 21.9 °F 75% 29.73 in 10.0 mi South 3.5 mph - N/A   Mostly Cloudy
10:53 PM 26.1 °F - 21.0 °F 81% 29.73 in 10.0 mi Calm Calm - N/A   Clear
11:53 PM 24.1 °F - 19.0 °F 81% 29.74 in 10.0 mi Calm Calm - N/A   Scattered Clouds